Location: Monteux
(44.0348°N, 4.9972°E)
Time: 21:50:47
(UTC+00:00)

Cosmos 2341 Rocket - Pass Details

Date: 23 April 2021
Orbit: 969 x 1003 km, 82.9° (Epoch: 16 May)

Event Time Altitude Azimuth Distance (km) Brightness Sun altitude
Rises 23:51:03 0° 355° (N) 3,721 8.1 -33.0°
Reaches altitude 10° 23:53:38 10° 359° (N) 2,772 7.2 -33.0°
Enters shadow 23:59:29 57° 61° (ENE) 1,169 4.4 -32.9°
